Weather in Levice

Slovakia     48°12′52″N   18°36′19″E
temp.,
°C
wind,
m/s
gust,
m/s
humid.,
%
clouds,
%
prec.,
mm/h
press.,
hPa
HPBL,
m
11 may, tue
tue1123:00+16e611801 0.0 1014229
02:00+14e511890 0.0 1014234
05:00+13e511910 0.0 1014215
08:00+17ese69780 0.0 1014369
11:00+21ese79630 0.0 1013730
14:00+24se79520 0.0 10111334
17:00+24se69600 0.0 10101380
20:00+18ese4108180 0.0 1009196
12 may, wed
wed1223:00+16e498683 0.0 1009151
02:00+15e49910 0.0 1008153
05:00+14e410890 0.0 1007181
08:00+17ese46680 0.0 1008390
11:00+20se46570 0.0 1007907
14:00+22sse455355 0.0 10051626
17:00+19sw5577100 0.4 1004585
20:00+14w4691100 0.5 1004207
13 may, thu
thu1323:00+11w369590 0.1 1004175
02:00+11wsw3590100 0.5 1003274
05:00+11w5888100 1.3 1003436
08:00+11w3688100 2.8 1003459
11:00+11w4794100 4.4 1004514
14:00+13w5781100 5.3 1003847
17:00+13wnw5780100 0.1 1004827
20:00+11wnw5977100 0.2 1005738
14 may, fri
fri1423:00+10w4981100 0.0 1006681
02:00+10w4979100 0.0 1006927
05:00+9w4986100 0.1 1006675
08:00+10w51281100 0.1 10081192
11:00+13w6971100 0.1 10091183
14:00+16wnw6958100 0.4 10081812
17:00+16wnw2557100 0.0 10091256
20:00+12sw1280100 0.3 100913
15 may, sat
sat1523:00+9ne2187100 0.0 101111
02:00+8ene22905 0.0 101121
05:00+8ne229021 0.0 101123
08:00+13e23765 0.0 1011250
11:00+17sse22677 0.7 1011904
14:00+19ene11588 2.1 10101311
17:00+19ese22566 0.2 10091431
20:00+14e11775 0.5 100911